Home > Weather > Campeche > Past weeks

Flag for Mexico Weather for the Past 2 Weeks in Campeche, Campeche, Mexico

Now
68 °F

Passing clouds.


Feels Like: 68 °F
Forecast: 72 / 84 °F
Wind: No wind

Location: Aerop. Internacional Merida - Yuc

Current Time: May 6, 2016 at 4:58:48 AM

Latest Report: May 6, 2016 at 3:46 AM


Visibility: 7 mi

Pressure: 29.97 "Hg

Humidity: 73%

Dew Point: 59 °F

Location of CampecheLocation

Historic Weather in Campeche — Graph

°F

Campeche Temperature Yesterday

Maximum temperature yesterday: 86 °F (at 12:46 PM)
Minimum temperature yesterday: 73 °F (at 4:53 AM)
Average temperature yesterday: 79 °F

High & Low Weather Summary for the Past Weeks

 TemperatureHumidityPressure
High104 °F (Apr 27, 2:48 PM)89% (Apr 23, 4:50 AM)30.04 "Hg (Apr 23, 4:50 AM)
Low72 °F (Apr 21, 4:52 AM)23% (Apr 28, 5:46 PM)29.64 "Hg (Apr 30, 4:41 PM)
Average85 °F62%29.84 "Hg
* Reported Apr 21 2:52 AM — May 6 2:44 AM, Campeche, Weather by CustomWeather, © 2016

Note: Actual official high and low records may vary slightly from our data, if they occured in-between our weather recording intervals... More about our weather records

Advertising

Campeche Weather History for the Previous 24 Hours

Scroll right to see more
 ConditionsComfort  
Time TempWeatherWind HumidityBarometerVisibility
2:44 AM
Fri, May 6
72 °FClear.5 mph69%29.94 "Hg7 mi
1:45 AM72 °FClear.5 mph69%29.95 "Hg7 mi
12:46 AM72 °FClear.5 mph69%29.97 "Hg7 mi
11:46 PM
Thu, May 5
73 °FClear.5 mph65%29.99 "Hg7 mi
10:46 PM73 °FClear.7 mph65%29.99 "Hg7 mi
9:46 PM75 °FClear.6 mph61%29.95 "Hg7 mi
8:44 PM75 °FClear.7 mph57%29.95 "Hg7 mi
7:47 PM77 °FSunny.8 mph57%29.93 "Hg7 mi
5:43 PM82 °FSunny.5 mph45%29.92 "Hg7 mi
4:42 PM84 °FPassing clouds.9 mph40%29.92 "Hg7 mi
3:43 PM86 °FSunny.7 mph35%29.93 "Hg7 mi
2:46 PM86 °FSunny.7 mph38%29.94 "Hg7 mi
1:47 PM86 °FSunny.8 mph38%29.95 "Hg7 mi
12:46 PM86 °FSunny.13 mph35%29.96 "Hg7 mi
11:49 AM84 °FSunny.5 mph40%29.98 "Hg7 mi
9:45 AM81 °FPassing clouds.12 mph48%29.96 "Hg7 mi
8:43 AM79 °FScattered clouds.9 mph54%29.99 "Hg7 mi
7:47 AM77 °FSunny.8 mph61%29.98 "Hg7 mi
6:45 AM73 °FClear.6 mph69%29.95 "Hg7 mi
5:46 AM73 °FClear.5 mph74%29.93 "Hg7 mi
4:53 AM73 °FClear.6 mph74%29.91 "Hg7 mi
Weather by CustomWeather, © 2016

See weather overviewHow to use our weather pages